Bryce, UT

3:17 PM MST on December 07, 2016 (GMT -0700)
Bryce Canyon

Weather History for KBCE - April, 2014

Change the Weather History Date:

Saturday, April 5, 2014

  Actual Average Record
Temperature  
Mean Temperature 34 °F -  
Max Temperature 46 °F 50 °F 67 °F (1960)
Min Temperature 25 °F 21 °F -2 °F (1983)
Degree Days  
Heating Degree Days 31    
Moisture  
Dew Point 23 °F    
Average Humidity 65    
Maximum Humidity 88    
Minimum Humidity 34    
Precipitation  
Precipitation 0.00 in - - ()
Sea Level Pressure  
Sea Level Pressure 29.83 in    
Wind  
Wind Speed 7 mph (NNW)    
Max Wind Speed 23 mph    
Max Gust Speed 29 mph    
Visibility 10 miles    
Events      
Averages and records for this station are not official NWS values.
T = Trace of Precipitation, MM = Missing Value Source: NWS Daily Summary

Daily Weather History Graph

Daily Weather History Graph

Search for Another Location

Airport or City:

Trip Planner

Search our weather history database for the weather conditions in past years. The results will help you decide how hot, cold, wet, or windy it might be!

Date:

Astronomy

Apr. 05, 2014 Rise Set
Actual Time 7:07 AM MDT 7:55 PM MDT
Civil Twilight 6:41 AM MDT 8:21 PM MDT
Nautical Twilight 6:09 AM MDT 8:53 PM MDT
Astronomical Twilight 5:37 AM MDT 9:25 PM MDT
Moon 11:22 AM MDT (4/5) 1:04 AM MDT (4/5)
Length of Visible Light 13h 40m
Length of Day
12h 47m
Waxing Crescent, 35% of the Moon is Illuminated
Apr 5
Waxing Crescent
Apr 7
First Quarter
Apr 15
Full
Apr 22
Last Quarter
Apr 29
New

Hourly Weather History & Observations

Time (MDT) Temp. Windchill Dew Point Humidity Pressure Visibility Wind Dir Wind Speed Gust Speed Precip Events Conditions
12:54 AM 25.0 °F - 21.0 °F 85% 29.84 in 10.0 mi Calm Calm - N/A   Unknown
1:53 AM 28.9 °F - 23.0 °F 78% 29.82 in 10.0 mi Calm Calm - N/A   Overcast
2:53 AM 32.0 °F 24.8 °F 21.0 °F 64% 29.77 in - North 8.1 mph - N/A   Unknown
3:54 AM 30.0 °F 22.4 °F 21.9 °F 72% 29.77 in 10.0 mi NE 8.1 mph - N/A   Unknown
4:53 AM 30.0 °F 24.1 °F 21.0 °F 69% 29.75 in - NNW 5.8 mph - N/A   Unknown
5:53 AM 28.9 °F 25.2 °F 21.9 °F 75% 29.76 in - Variable 3.5 mph - N/A   Unknown
6:53 AM 28.0 °F 22.8 °F 21.9 °F 78% 29.77 in - NNE 4.6 mph - N/A   Unknown
7:53 AM 30.0 °F 21.7 °F 21.9 °F 72% 29.79 in - NNE 9.2 mph - N/A   Unknown
8:53 AM 34.0 °F 27.2 °F 21.0 °F 59% 29.78 in 10.0 mi NNW 8.1 mph - N/A   Mostly Cloudy
9:53 AM 37.9 °F 35.5 °F 21.0 °F 51% 29.79 in - NNW 3.5 mph - N/A   Unknown
10:53 AM 39.9 °F 33.9 °F 17.1 °F 40% 29.81 in - West 9.2 mph - N/A   Unknown
11:53 AM 42.1 °F 37.1 °F 15.1 °F 34% 29.79 in 10.0 mi West 8.1 mph - N/A   Clear
12:53 PM 43.0 °F 36.0 °F 19.9 °F 40% 29.80 in 10.0 mi NW 13.8 mph 20.7 mph N/A   Scattered Clouds
1:53 PM 43.0 °F 36.0 °F 19.9 °F 40% 29.79 in 10.0 mi NW 13.8 mph 20.7 mph N/A   Scattered Clouds
2:53 PM 39.9 °F 33.4 °F 23.0 °F 51% 29.79 in 10.0 mi NE 10.4 mph - N/A   Mostly Cloudy
3:53 PM 42.1 °F 32.6 °F 26.1 °F 53% 29.78 in 10.0 mi WNW 23.0 mph 28.8 mph N/A   Mostly Cloudy
4:53 PM 37.0 °F 28.9 °F 26.1 °F 65% 29.83 in - WNW 12.7 mph - 0.00 in   Unknown
5:40 PM 39.0 °F 29.0 °F 30.0 °F 70% 29.96 in 10.0 mi NE 20.7 mph - N/A   Mostly Cloudy
5:54 PM 37.0 °F 26.2 °F 28.0 °F 70% 29.86 in 10.0 mi NNE 21.9 mph 28.8 mph N/A   Unknown
6:54 PM 39.9 °F 32.1 °F 23.0 °F 51% 29.85 in 10.0 mi NNE 13.8 mph - 0.00 in   Unknown
7:54 PM 34.0 °F 25.5 °F 25.0 °F 70% 29.90 in - NW 11.5 mph - N/A   Unknown
8:53 PM 30.0 °F 22.4 °F 25.0 °F 82% 29.92 in - NW 8.1 mph - N/A   Unknown
9:53 PM 28.0 °F 19.3 °F 21.9 °F 78% 29.96 in 10.0 mi NNE 9.2 mph - N/A   Clear
10:53 PM 28.9 °F 19.8 °F 25.0 °F 85% 29.94 in - NNW 10.4 mph - N/A   Unknown
11:53 PM 26.1 °F 16.2 °F 23.0 °F 88% 29.96 in 10.0 mi North 10.4 mph - N/A   Clear